User: anonymous   Login
Location: ??????
(55.6500°N, 37.8000°E)
Time: 19:18:24
(UTC+00:00)
Language:

Cosmos 2237 Rocket - Orbit

View from above orbital plane
View from above orbital plane
View from above satellite
View from above satellite

Ground track
Ground track

The orbit data is extracted from the following two-line orbital elements,

1 22566U 93016B   24166.26869956 -.00000121  00000-0 -37846-4 0  9998
2 22566  71.0080 105.3998 0011622 218.2683 141.7616 14.15139896612558
Epoch (UTC): 14 June 2024 06:26:55
Eccentricity: 0.0011622
inclination: 71.0080°
perigee height: 833 km
apogee height: 850 km
right ascension of ascending node: 105.3998°
argument of perigee: 218.2683°
revolutions per day: 14.15139896
mean anomaly at epoch: 141.7616°
orbit number at epoch: 61255

The dashed part of the orbit path shows where the satellite is in the earth's shadow,  

DLR